This is the latest recevied weather packets stored in our database for station/object N5PRN. If no packets are shown the sender has not sent any weather packets the latest 10 day(s).
| Time | Temp. | Humidity | Pressure | Rain* | Wind** | Luminosity | Snow |
|---|---|---|---|---|---|---|---|
| 1777524904 | 19.44° C | 98% | 1013.3 hPa | 3.05 mm | - | 0 W/m² | - |
| 1777524601 | 19.44° C | 98% | 1013.3 hPa | 1.27 mm | - | 0 W/m² | - |
| 1777524300 | 18.89° C | 98% | 1013.7 hPa | 1.78 mm | - | 0 W/m² | - |
| 1777523995 | 18.89° C | 98% | 1013.6 hPa | 3.05 mm | - | 0 W/m² | - |
| 1777523691 | 18.89° C | 98% | 1013.3 hPa | 3.05 mm | - | 0 W/m² | - |
| 1777523387 | 18.89° C | 98% | 1013.3 hPa | 1.78 mm | - | 0 W/m² | - |
| 1777523084 | 19.44° C | 98% | 1013.5 hPa | 1.27 mm | - | 0 W/m² | - |
| 1777522780 | 18.89° C | 98% | 1013.8 hPa | 1.27 mm | - | 0 W/m² | - |
| 1777522477 | 18.89° C | 98% | 1013.8 hPa | 0 mm | - | 0 W/m² | - |
| 1777522175 | 18.89° C | 98% | 1014 hPa | 0 mm | - | 0 W/m² | - |
| 1777521872 | 18.89° C | 98% | 1014.1 hPa | 0 mm | - | 0 W/m² | - |
| 1777521567 | 18.89° C | 98% | 1013.9 hPa | 0 mm | - | 0 W/m² | - |
| 1777521265 | 18.89° C | 98% | 1014.1 hPa | 0 mm | - | 0 W/m² | - |
| 1777520956 | 19.44° C | 98% | 1013.9 hPa | 0 mm | - | 0 W/m² | - |
| 1777520653 | 19.44° C | 98% | 1013.6 hPa | 0 mm | - | 0 W/m² | - |
| 1777520350 | 18.89° C | 97% | 1013.8 hPa | 0 mm | - | 0 W/m² | - |
| 1777520048 | 18.89° C | 97% | 1013.6 hPa | 0 mm | - | 0 W/m² | - |
| 1777519745 | 18.89° C | 97% | 1013.3 hPa | 0 mm | - | 0 W/m² | - |
| 1777519442 | 18.89° C | 97% | 1013 hPa | 0 mm | - | 0 W/m² | - |
| 1777519138 | 19.44° C | 97% | 1013.2 hPa | 0 mm | - | 0 W/m² | - |
| 1777518833 | 19.44° C | 97% | 1012.9 hPa | 0 mm | - | 0 W/m² | - |
| 1777518530 | 19.44° C | 97% | 1012.9 hPa | 0 mm | - | 0 W/m² | - |
| 1777518225 | 19.44° C | 97% | 1012.7 hPa | 0 mm | - | 0 W/m² | - |
| 1777517922 | 19.44° C | 97% | 1012.6 hPa | 0 mm | - | 0 W/m² | - |
| 1777517618 | 19.44° C | 97% | 1012.8 hPa | 0 mm | - | 0 W/m² | - |
* Rain latest hour (hover to see other rain measurements)
** Current wind speed in m/s (hover to see current wind gust speed)